Weather History for KNDZ - November, 2011

Change the Weather History Date:

Wednesday, November 16, 2011

  Actual Average (KPNS) Record (KPNS)
Temperature  
Mean Temperature 74 °F 61 °F  
Max Temperature 79 °F 70 °F 83 °F (1955)
Min Temperature 66 °F 51 °F 25 °F (1940)
Degree Days  
Heating Degree Days 0 6  
Month to date heating degree days 68  
Since 1 July heating degree days 106  
Cooling Degree Days 8 1  
Month to date cooling degree days 32  
Year to date cooling degree days 2582  
Growing Degree Days 24 (Base 50)    
Moisture  
Dew Point 69 °F    
Average Humidity 87    
Maximum Humidity 96    
Minimum Humidity 60    
Precipitation  
Precipitation 0.35 in 0.17 in 1.54 in (1927)
Month to date precipitation 2.58  
Year to date precipitation 58.57  
Snow  
Snow 0.00 in 0.00 in 0.00 in (2002)
Month to date snowfall 0.0  
Since 1 July snowfall 0.0  
Snow Depth -    
Sea Level Pressure  
Sea Level Pressure 29.85 in    
Wind  
Wind Speed 7 mph (SSW)    
Max Wind Speed 21 mph    
Max Gust Speed 32 mph    
Visibility 9 miles    
Events Rain , Thunderstorm    
T = Trace of Precipitation, MM = Missing Value Source: NWS Daily Summary

Daily Weather History Graph

Daily Weather History Graph

Search for Another Location

Airport or City:

Trip Planner

Search our weather history database for the weather conditions in past years. The results will help you decide how hot, cold, wet, or windy it might be!

Date:

Astronomy

Nov. 16, 2011 Rise Set
Actual Time 6:15 AM CST 4:50 PM CST
Civil Twilight 5:49 AM CST 5:15 PM CST
Nautical Twilight 5:20 AM CST 5:44 PM CST
Astronomical Twilight 4:51 AM CST 6:13 PM CST
Moon 10:00 PM CST (11/16) 10:52 AM CST (11/16)
Length of Visible Light 11h 26m
Length of Day
10h 35m
Waning Gibbous, 70% of the Moon is Illuminated
Nov 16
Waning Gibbous
Nov 18
Last Quarter
Nov 25
New
Dec 2
First Quarter
Dec 10
Full

Hourly Weather History & Observations

Time (CST) Temp. Dew Point Humidity Pressure Visibility Wind Dir Wind Speed Gust Speed Precip Events Conditions
12:15 AM 71.6 °F 69.8 °F 94% 29.90 in 8.0 mi South 4.6 mph - N/A   Mostly Cloudy
12:25 AM 71.6 °F 69.8 °F 94% 29.91 in 8.0 mi Variable 3.5 mph - N/A   Mostly Cloudy
12:56 AM 71.1 °F 70.0 °F 96% 29.86 in 8.0 mi South 5.8 mph - 0.06 in Rain Light Rain
1:56 AM 72.0 °F 70.0 °F 93% 29.85 in 8.0 mi SSW 5.8 mph - 0.07 in Rain Light Rain
2:36 AM 71.6 °F 69.8 °F 94% 29.89 in 10.0 mi SSW 5.8 mph - 0.00 in   Overcast
2:56 AM 71.1 °F 69.1 °F 93% 29.84 in 10.0 mi SSW 5.8 mph - 0.00 in   Overcast
3:41 AM 71.6 °F 69.8 °F 94% 29.88 in 10.0 mi SSW 4.6 mph - N/A   Mostly Cloudy
3:56 AM 71.1 °F 69.1 °F 93% 29.83 in 10.0 mi Variable 3.5 mph - N/A   Overcast
4:56 AM 73.0 °F 71.1 °F 93% 29.83 in 7.0 mi SSW 4.6 mph - N/A   Overcast
5:56 AM 73.9 °F 72.0 °F 93% 29.83 in 10.0 mi SSW 10.4 mph 16.1 mph N/A   Overcast
6:56 AM 73.9 °F 72.0 °F 93% 29.85 in 8.0 mi South 9.2 mph - N/A   Overcast
7:56 AM 75.0 °F 73.0 °F 94% 29.85 in 10.0 mi South 10.4 mph - N/A   Overcast
8:56 AM 77.0 °F 73.0 °F 88% 29.86 in 10.0 mi South 16.1 mph 20.7 mph N/A   Overcast
9:56 AM 78.1 °F 73.0 °F 84% 29.85 in 10.0 mi SSW 11.5 mph 28.8 mph N/A   Overcast
10:56 AM 78.1 °F 73.0 °F 84% 29.83 in 10.0 mi SSW 20.7 mph 32.2 mph N/A   Overcast
11:44 AM 78.8 °F 71.6 °F 78% 29.85 in 10.0 mi SSW 17.3 mph 29.9 mph N/A   Overcast
11:56 AM 77.0 °F 73.0 °F 88% 29.80 in 10.0 mi SSW 13.8 mph 24.2 mph N/A   Overcast
12:08 PM 77.0 °F 73.4 °F 89% 29.83 in 10.0 mi SSW 13.8 mph 23.0 mph N/A   Overcast
12:21 PM 77.0 °F 73.4 °F 89% 29.83 in 10.0 mi SSW 11.5 mph 28.8 mph N/A Thunderstorm Thunderstorm
12:36 PM 75.2 °F 73.4 °F 94% 29.84 in 1.8 mi WSW 15.0 mph 29.9 mph 0.14 in Rain , Thunderstorm Heavy Thunderstorms and Rain
12:46 PM 75.2 °F 71.6 °F 89% 29.85 in 2.0 mi WSW 9.2 mph 28.8 mph 0.22 in Rain , Thunderstorm Light Thunderstorms and Rain
12:51 PM 75.2 °F 71.6 °F 89% 29.85 in 10.0 mi WSW 8.1 mph 20.7 mph 0.22 in Thunderstorm Thunderstorm
12:56 PM 75.0 °F 72.0 °F 90% 29.80 in 10.0 mi SW 10.4 mph 17.3 mph 0.22 in Thunderstorm Thunderstorm
1:02 PM 75.2 °F 71.6 °F 89% 29.84 in 10.0 mi SW 9.2 mph 16.1 mph N/A   Mostly Cloudy
1:11 PM 75.2 °F 69.8 °F 83% 29.85 in 10.0 mi SW 8.1 mph 16.1 mph N/A Thunderstorm Thunderstorm
1:27 PM 75.2 °F 68.0 °F 78% 29.84 in 10.0 mi WSW 9.2 mph - N/A   Mostly Cloudy
1:56 PM 77.0 °F 64.9 °F 66% 29.79 in 10.0 mi SW 6.9 mph 16.1 mph N/A   Scattered Clouds
2:56 PM 79.0 °F 64.9 °F 62% 29.78 in 10.0 mi Variable 5.8 mph - N/A   Clear
3:56 PM 77.0 °F 62.1 °F 60% 29.79 in 10.0 mi SW 5.8 mph - N/A   Unknown
4:56 PM 73.0 °F 63.0 °F 71% 29.81 in 10.0 mi SW 3.5 mph - N/A   Unknown
5:56 PM 71.1 °F 63.0 °F 75% 29.83 in 10.0 mi Calm Calm - N/A   Unknown
6:56 PM 70.0 °F 64.0 °F 81% 29.85 in 10.0 mi SW 3.5 mph - N/A   Unknown
7:56 PM 69.1 °F 64.9 °F 87% 29.86 in 10.0 mi SW 4.6 mph - N/A   Unknown
8:56 PM 69.1 °F 66.0 °F 90% 29.87 in 10.0 mi Variable 3.5 mph - N/A   Unknown
9:56 PM 69.1 °F 66.0 °F 90% 29.88 in 10.0 mi Variable 4.6 mph - N/A   Unknown
10:56 PM 68.0 °F 66.0 °F 93% 29.88 in 10.0 mi Calm Calm - N/A   Unknown
11:56 PM 66.9 °F 64.9 °F 93% 29.90 in 10.0 mi Calm Calm - N/A   Unknown